Location: Stockholm
(59.3293°N, 18.0686°E)
Time: 16:13:27
(UTC+01:00)

Envisat - Visible Passes

Search period start: 20 February 2018 00:00
Search period end: 02 March 2018 00:00
Orbit: 764 x 766 km, 98.2° (Epoch: 19 February)

Date Brightness Start Highest point End Pass type
(mag) Time Alt. Az. Time Alt. Az. Time Alt. Az.
20 Feb 3.0 18:55:19 10° SSE 19:00:25 83° WSW 19:05:33 10° NNW visible
20 Feb 5.5 20:36:38 10° SW 20:40:14 19° W 20:43:52 10° NW visible
21 Feb 3.0 18:18:44 10° SE 18:23:43 59° ENE 18:28:44 10° NNW visible
21 Feb 4.7 19:58:30 10° SSW 20:03:04 33° W 20:07:40 10° NNW visible
22 Feb 6.5 06:20:29 10° ENE 06:21:32 11° ENE 06:22:34 10° E visible
22 Feb 3.6 17:42:34 10° ESE 17:47:11 36° ENE 17:51:49 10° N visible
22 Feb 3.6 19:21:05 10° S 19:26:05 56° W 19:31:07 10° NNW visible
22 Feb 5.9 21:03:59 10° WSW 21:06:16 13° W 21:08:34 10° NW visible
23 Feb 2.9 18:44:10 10° SSE 18:49:16 85° ENE 18:54:24 10° NNW visible
23 Feb 5.3 20:25:00 10° SW 20:28:57 22° W 20:32:57 10° NW visible
24 Feb 3.2 18:07:43 10° SE 18:12:37 51° ENE 18:17:33 10° N visible
24 Feb 4.4 19:47:06 10° SSW 19:51:50 38° W 19:56:36 10° NNW visible
25 Feb 3.4 19:09:50 10° S 19:14:54 67° WSW 19:20:00 10° NNW visible
25 Feb 5.8 20:51:59 10° WSW 20:54:56 15° W 20:57:54 10° NW visible
26 Feb 2.9 18:33:04 10° SSE 18:38:08 73° ENE 18:43:14 10° NNW visible
26 Feb 5.0 20:13:26 10° SSW 20:17:41 26° W 20:21:57 10° NNW visible
27 Feb 3.4 17:56:44 10° SE 18:01:31 44° ENE 18:06:21 10° N visible
27 Feb 4.1 19:35:45 10° S 19:40:37 45° W 19:45:31 10° NNW visible
28 Feb 3.1 18:58:38 10° SSE 19:03:44 78° WSW 19:08:52 10° NNW visible
28 Feb 5.6 20:40:11 10° SW 20:43:37 18° W 20:47:05 10° NW visible
01 Mar 3.0 18:22:00 10° SE 18:27:01 63° ENE 18:32:04 10° NNW visible
01 Mar 4.8 20:01:56 10° SSW 20:06:25 31° W 20:10:56 10° NNW visible
